Time,TemperatureF,DewpointF,PressureIn,WindDirection,WindDirectionDegrees,WindSpeedMPH,WindSpeedGustMPH,Humidity,HourlyPrecipIn,Conditions,Clouds,dailyrainin,SoftwareType,DateUTC
2013-01-05 00:00:00,30.7,25.3,30.02,WSW,250,12.0,16.0,80,0.00,OVC,OVC,0.00,WeatherDisplay:10.37,2013-01-05 05:00:00,
2013-01-05 00:03:00,30.7,25.3,30.03,WNW,292,12.4,16.1,80,0.00,OVC,,0.00,WeatherDisplay:10.37,2013-01-05 05:03:00,
2013-01-05 00:08:00,30.7,25.3,30.03,West,270,8.3,8.3,80,0.00,OVC,,0.00,WeatherDisplay:10.37,2013-01-05 05:08:00,
2013-01-05 00:13:00,30.9,25.8,30.03,WSW,248,14.4,19.6,81,0.00,OVC,,0.00,WeatherDisplay:10.37,2013-01-05 05:13:00,
2013-01-05 00:18:00,30.9,25.8,30.03,West,270,17.8,19.6,81,0.00,OVC,,0.00,WeatherDisplay:10.37,2013-01-05 05:18:00,
2013-01-05 00:23:00,30.9,26.1,30.03,SSW,202,6.7,9.9,82,0.00,OVC,,0.00,WeatherDisplay:10.37,2013-01-05 05:23:00,
2013-01-05 00:28:00,30.9,26.1,30.04,West,270,9.7,11.5,82,0.00,OVC,,0.00,WeatherDisplay:10.37,2013-01-05 05:28:00,
2013-01-05 00:33:00,30.9,26.1,30.04,WSW,248,9.3,14.0,82,0.00,OVC,,0.00,WeatherDisplay:10.37,2013-01-05 05:33:00,
2013-01-05 00:38:00,31.1,26.2,30.04,SW,225,13.5,16.6,82,0.00,OVC,,0.00,WeatherDisplay:10.37,2013-01-05 05:38:00,
2013-01-05 00:44:00,31.1,26.2,30.04,West,270,13.2,20.7,82,0.00,OVC,,0.00,WeatherDisplay:10.37,2013-01-05 05:44:00,
2013-01-05 00:49:00,31.1,26.2,30.04,SW,225,13.4,13.8,82,0.00,OVC,,0.00,WeatherDisplay:10.37,2013-01-05 05:49:00,
2013-01-05 00:54:00,31.1,26.2,30.05,WSW,248,12.8,19.6,82,0.00,OVC,,0.00,WeatherDisplay:10.37,2013-01-05 05:54:00,
2013-01-05 00:59:00,31.1,26.2,30.05,SW,225,13.5,14.0,82,0.00,OVC,,0.00,WeatherDisplay:10.37,2013-01-05 05:59:00,
2013-01-05 01:04:00,31.1,26.5,30.06,West,270,6.7,9.2,83,0.00,OVC,,0.00,WeatherDisplay:10.37,2013-01-05 06:04:00,
2013-01-05 01:09:00,31.1,26.5,30.06,WSW,248,10.6,17.3,83,0.00,OVC,,0.00,WeatherDisplay:10.37,2013-01-05 06:09:00,
2013-01-05 01:14:00,31.1,26.5,30.06,WSW,248,9.8,14.0,83,0.00,OVC,,0.00,WeatherDisplay:10.37,2013-01-05 06:14:00,
2013-01-05 01:19:00,31.1,26.2,30.06,SW,225,11.1,11.1,82,0.00,OVC,,0.00,WeatherDisplay:10.37,2013-01-05 06:19:00,
2013-01-05 01:24:00,31.1,26.0,30.06,WSW,248,13.0,13.8,81,0.00,OVC,,0.00,WeatherDisplay:10.37,2013-01-05 06:24:00,
2013-01-05 01:29:00,31.1,26.2,30.06,West,270,8.8,13.8,82,0.00,OVC,,0.00,WeatherDisplay:10.37,2013-01-05 06:29:00,
2013-01-05 01:34:00,31.1,26.2,30.06,South,180,6.3,6.3,82,0.00,OVC,,0.00,WeatherDisplay:10.37,2013-01-05 06:34:00,
2013-01-05 01:39:00,31.1,25.7,30.07,West,270,13.3,13.5,80,0.00,OVC,,0.00,WeatherDisplay:10.37,2013-01-05 06:39:00,
2013-01-05 01:44:00,31.1,26.0,30.07,WSW,248,9.2,11.5,81,0.00,OVC,,0.00,WeatherDisplay:10.37,2013-01-05 06:44:00,
2013-01-05 01:49:00,30.9,25.8,30.07,WSW,248,9.8,15.0,81,0.00,OVC,,0.00,WeatherDisplay:10.37,2013-01-05 06:49:00,
2013-01-05 01:54:00,30.9,25.8,30.08,WSW,248,8.6,10.4,81,0.00,OVC,,0.00,WeatherDisplay:10.37,2013-01-05 06:54:00,
2013-01-05 01:59:00,30.9,25.8,30.08,WSW,248,7.3,13.8,81,0.00,OVC,,0.00,WeatherDisplay:10.37,2013-01-05 06:59:00,
2013-01-05 02:04:00,30.7,25.6,30.08,WSW,248,9.1,12.7,81,0.00,OVC,,0.00,WeatherDisplay:10.37,2013-01-05 07:04:00,
2013-01-05 02:09:00,30.7,25.3,30.08,SSW,202,7.9,11.5,80,0.00,OVC,,0.00,WeatherDisplay:10.37,2013-01-05 07:09:00,
2013-01-05 02:14:00,30.7,25.3,30.09,West,270,9.2,12.4,80,0.00,OVC,,0.00,WeatherDisplay:10.37,2013-01-05 07:14:00,
2013-01-05 02:19:00,30.7,25.3,30.09,WNW,292,9.2,10.9,80,0.00,OVC,,0.00,WeatherDisplay:10.37,2013-01-05 07:19:00,
2013-01-05 02:24:00,30.7,25.3,30.09,WSW,248,11.6,11.6,80,0.00,OVC,,0.00,WeatherDisplay:10.37,2013-01-05 07:24:00,
2013-01-05 02:29:00,30.7,25.3,30.10,West,270,11.4,14.5,80,0.00,OVC,,0.00,WeatherDisplay:10.37,2013-01-05 07:29:00,
2013-01-05 02:34:00,30.7,25.3,30.10,West,270,8.8,12.7,80,0.00,OVC,,0.00,WeatherDisplay:10.37,2013-01-05 07:34:00,
2013-01-05 02:39:00,30.7,25.3,30.10,SW,225,11.9,15.0,80,0.00,OVC,,0.00,WeatherDisplay:10.37,2013-01-05 07:39:00,
2013-01-05 02:44:00,30.7,25.3,30.10,SW,225,8.3,11.5,80,0.00,OVC,,0.00,WeatherDisplay:10.37,2013-01-05 07:44:00,
2013-01-05 02:49:00,30.7,25.6,30.10,WSW,248,9.3,9.9,81,0.00,OVC,,0.00,WeatherDisplay:10.37,2013-01-05 07:49:00,
2013-01-05 02:54:00,30.7,25.6,30.10,NNW,338,9.4,13.8,81,0.00,OVC,,0.00,WeatherDisplay:10.37,2013-01-05 07:54:00,
2013-01-05 02:59:00,30.6,25.5,30.10,SW,225,8.3,11.5,81,0.00,OVC,,0.00,WeatherDisplay:10.37,2013-01-05 07:59:00,
2013-01-05 03:04:00,30.6,25.5,30.11,SSW,202,8.1,10.4,81,0.00,OVC,,0.00,WeatherDisplay:10.37,2013-01-05 08:04:00,
2013-01-05 03:09:00,30.6,25.5,30.11,SW,225,6.8,6.8,81,0.00,OVC,,0.00,WeatherDisplay:10.37,2013-01-05 08:09:00,
2013-01-05 03:14:00,30.6,25.5,30.11,West,270,6.7,8.1,81,0.00,OVC,,0.00,WeatherDisplay:10.37,2013-01-05 08:14:00,
2013-01-05 03:19:00,30.6,25.5,30.11,West,270,10.1,11.9,81,0.00,OVC,,0.00,WeatherDisplay:10.37,2013-01-05 08:19:00,
2013-01-05 03:24:00,30.7,25.6,30.11,SW,225,7.4,13.5,81,0.00,OVC,,0.00,WeatherDisplay:10.37,2013-01-05 08:24:00,
2013-01-05 03:29:00,30.6,25.5,30.12,SW,225,8.4,11.5,81,0.00,OVC,,0.00,WeatherDisplay:10.37,2013-01-05 08:29:00,
2013-01-05 03:34:00,30.6,25.8,30.12,SW,225,9.2,11.5,82,0.00,OVC,,0.00,WeatherDisplay:10.37,2013-01-05 08:34:00,
2013-01-05 03:39:00,30.6,25.8,30.12,WSW,248,9.0,9.0,82,0.00,OVC,,0.00,WeatherDisplay:10.37,2013-01-05 08:39:00,
2013-01-05 03:44:00,30.6,25.8,30.12,SSW,202,5.9,9.2,82,0.00,OVC,,0.00,WeatherDisplay:10.37,2013-01-05 08:44:00,
2013-01-05 03:49:00,30.7,25.9,30.12,WSW,248,8.9,9.9,82,0.00,OVC,,0.00,WeatherDisplay:10.37,2013-01-05 08:49:00,
2013-01-05 03:54:00,30.7,25.9,30.12,West,270,8.4,9.4,82,0.00,OVC,,0.00,WeatherDisplay:10.37,2013-01-05 08:54:00,
2013-01-05 03:59:00,30.7,26.1,30.12,West,270,6.2,8.1,83,0.00,OVC,,0.00,WeatherDisplay:10.37,2013-01-05 08:59:00,
2013-01-05 04:04:00,30.7,26.1,30.12,West,270,8.0,9.2,83,0.00,OVC,,0.00,WeatherDisplay:10.37,2013-01-05 09:04:00,
2013-01-05 04:09:00,30.9,26.3,30.12,SW,225,8.8,9.9,83,0.00,OVC,,0.00,WeatherDisplay:10.37,2013-01-05 09:09:00,
2013-01-05 04:14:00,30.9,26.3,30.13,WSW,248,8.6,10.4,83,0.00,OVC,,0.00,WeatherDisplay:10.37,2013-01-05 09:14:00,
2013-01-05 04:19:00,30.9,26.3,30.13,SW,225,8.3,10.4,83,0.00,OVC,,0.00,WeatherDisplay:10.37,2013-01-05 09:19:00,
2013-01-05 04:24:00,30.9,26.3,30.13,West,270,6.4,11.5,83,0.00,OVC,,0.00,WeatherDisplay:10.37,2013-01-05 09:24:00,
2013-01-05 04:29:00,30.9,26.3,30.13,SW,225,9.6,10.4,83,0.00,OVC,,0.00,WeatherDisplay:10.37,2013-01-05 09:29:00,
2013-01-05 04:34:00,30.9,26.3,30.13,West,270,10.1,13.8,83,0.00,OVC,,0.00,WeatherDisplay:10.37,2013-01-05 09:34:00,
2013-01-05 04:39:00,30.9,26.3,30.14,SW,225,9.8,10.4,83,0.00,OVC,,0.00,WeatherDisplay:10.37,2013-01-05 09:39:00,
2013-01-05 04:44:00,30.9,26.3,30.14,SSW,202,10.2,13.8,83,0.00,OVC,,0.00,WeatherDisplay:10.37,2013-01-05 09:44:00,
2013-01-05 04:49:00,30.9,26.6,30.14,West,270,9.5,10.4,84,0.00,OVC,,0.00,WeatherDisplay:10.37,2013-01-05 09:49:00,
2013-01-05 04:54:00,30.9,26.6,30.14,SW,225,9.3,12.7,84,0.00,OVC,,0.00,WeatherDisplay:10.37,2013-01-05 09:54:00,
2013-01-05 04:59:00,30.9,26.6,30.14,WSW,248,10.0,11.5,84,0.00,OVC,,0.00,WeatherDisplay:10.37,2013-01-05 09:59:00,
2013-01-05 05:04:00,30.9,26.6,30.14,SW,225,7.7,9.2,84,0.00,OVC,,0.00,WeatherDisplay:10.37,2013-01-05 10:04:00,
2013-01-05 05:09:00,30.9,26.6,30.14,South,180,6.7,6.9,84,0.00,OVC,,0.00,WeatherDisplay:10.37,2013-01-05 10:09:00,
2013-01-05 05:14:00,30.9,26.9,30.14,SSW,202,8.1,9.9,85,0.00,OVC,,0.00,WeatherDisplay:10.37,2013-01-05 10:14:00,
2013-01-05 05:19:00,30.9,26.9,30.14,West,270,10.0,10.4,85,0.00,OVC,,0.00,WeatherDisplay:10.37,2013-01-05 10:19:00,
2013-01-05 05:24:00,30.7,26.7,30.14,SW,225,7.6,11.5,85,0.00,OVC,,0.00,WeatherDisplay:10.37,2013-01-05 10:24:00,
2013-01-05 05:29:00,30.7,26.7,30.14,WSW,248,9.6,9.6,85,0.00,OVC,,0.00,WeatherDisplay:10.37,2013-01-05 10:29:00,
2013-01-05 05:34:00,30.7,27.0,30.14,West,270,9.3,10.4,86,0.00,OVC,,0.00,WeatherDisplay:10.37,2013-01-05 10:34:00,
2013-01-05 05:39:00,30.7,27.0,30.15,West,270,6.2,8.1,86,0.00,OVC,,0.00,WeatherDisplay:10.37,2013-01-05 10:39:00,
2013-01-05 05:44:00,30.7,27.0,30.15,West,270,6.0,9.2,86,0.00,OVC,,0.00,WeatherDisplay:10.37,2013-01-05 10:44:00,
2013-01-05 05:49:00,30.7,27.3,30.15,SSW,202,6.4,7.3,87,0.00,OVC,,0.00,WeatherDisplay:10.37,2013-01-05 10:49:00,
2013-01-05 05:54:00,30.7,27.3,30.16,West,270,9.0,9.0,87,0.00,OVC,,0.00,WeatherDisplay:10.37,2013-01-05 10:54:00,
2013-01-05 05:59:00,30.7,27.3,30.16,SW,225,9.2,9.2,87,0.00,OVC,,0.00,WeatherDisplay:10.37,2013-01-05 10:59:00,
2013-01-05 06:04:00,30.9,27.5,30.17,West,270,11.3,11.9,87,0.00,OVC,,0.00,WeatherDisplay:10.37,2013-01-05 11:04:00,
2013-01-05 06:09:00,30.9,27.5,30.17,SW,225,7.3,10.4,87,0.00,OVC,,0.00,WeatherDisplay:10.37,2013-01-05 11:09:00,
2013-01-05 06:14:00,30.9,27.5,30.17,West,270,6.5,8.8,87,0.00,OVC,,0.00,WeatherDisplay:10.37,2013-01-05 11:14:00,
2013-01-05 06:19:00,30.9,27.5,30.18,West,270,9.7,10.4,87,0.00,OVC,,0.00,WeatherDisplay:10.37,2013-01-05 11:19:00,
2013-01-05 06:24:00,30.7,27.6,30.18,SW,225,9.1,11.5,88,0.00,OVC,,0.00,WeatherDisplay:10.37,2013-01-05 11:24:00,
2013-01-05 06:29:00,30.7,27.6,30.18,SW,225,7.5,8.3,88,0.00,OVC,,0.00,WeatherDisplay:10.37,2013-01-05 11:29:00,
2013-01-05 06:34:00,30.7,27.6,30.18,SW,225,5.7,6.9,88,0.00,OVC,,0.00,WeatherDisplay:10.37,2013-01-05 11:34:00,
2013-01-05 06:39:00,30.7,27.6,30.18,WSW,248,7.0,7.3,88,0.00,OVC,,0.00,WeatherDisplay:10.37,2013-01-05 11:39:00,
2013-01-05 06:44:00,30.7,27.8,30.18,WSW,248,6.1,8.1,89,0.00,OVC,,0.00,WeatherDisplay:10.37,2013-01-05 11:44:00,
2013-01-05 06:49:00,30.7,27.8,30.18,SW,225,7.0,7.0,89,0.00,OVC,,0.00,WeatherDisplay:10.37,2013-01-05 11:49:00,
2013-01-05 06:54:00,30.7,27.8,30.18,WSW,248,7.2,8.1,89,0.00,OVC,,0.00,WeatherDisplay:10.37,2013-01-05 11:54:00,
2013-01-05 06:59:00,30.7,27.8,30.18,West,270,6.5,6.9,89,0.00,OVC,,0.00,WeatherDisplay:10.37,2013-01-05 11:59:00,
2013-01-05 07:04:00,30.7,27.8,30.19,WSW,248,8.4,8.4,89,0.00,OVC,,0.00,WeatherDisplay:10.37,2013-01-05 12:04:00,
2013-01-05 07:09:00,30.7,27.8,30.19,SW,225,5.8,6.9,89,0.00,OVC,,0.00,WeatherDisplay:10.37,2013-01-05 12:09:00,
2013-01-05 07:14:00,30.7,27.8,30.19,WSW,248,9.1,9.2,89,0.00,OVC,,0.00,WeatherDisplay:10.37,2013-01-05 12:14:00,
2013-01-05 07:19:00,30.7,27.8,30.19,SW,225,7.2,9.2,89,0.00,OVC,,0.00,WeatherDisplay:10.37,2013-01-05 12:19:00,
2013-01-05 07:24:00,30.7,27.8,30.19,SW,225,5.5,6.9,89,0.00,OVC,,0.00,WeatherDisplay:10.37,2013-01-05 12:24:00,
2013-01-05 07:29:00,30.7,28.1,30.19,WSW,248,7.8,8.1,90,0.00,OVC,,0.00,WeatherDisplay:10.37,2013-01-05 12:29:00,
2013-01-05 07:34:00,30.7,28.1,30.19,WSW,248,6.4,7.3,90,0.00,OVC,,0.00,WeatherDisplay:10.37,2013-01-05 12:34:00,
2013-01-05 07:39:00,30.6,28.0,30.20,West,270,6.4,8.3,90,0.00,OVC,,0.00,WeatherDisplay:10.37,2013-01-05 12:39:00,
2013-01-05 07:44:00,30.6,28.0,30.20,West,270,6.5,8.1,90,0.00,OVC,,0.00,WeatherDisplay:10.37,2013-01-05 12:44:00,
2013-01-05 07:49:00,30.6,28.0,30.20,WSW,248,7.2,8.1,90,0.00,OVC,,0.00,WeatherDisplay:10.37,2013-01-05 12:49:00,
2013-01-05 07:54:00,30.6,28.0,30.20,WSW,248,5.0,10.4,90,0.00,OVC,,0.00,WeatherDisplay:10.37,2013-01-05 12:54:00,
2013-01-05 07:59:00,30.6,28.0,30.20,West,270,4.8,6.8,90,0.00,OVC,,0.00,WeatherDisplay:10.37,2013-01-05 12:59:00,
2013-01-05 08:04:00,30.6,28.0,30.21,West,270,5.4,6.9,90,0.00,OVC,,0.00,WeatherDisplay:10.37,2013-01-05 13:04:00,
2013-01-05 08:09:00,30.7,28.4,30.21,SW,225,5.4,5.8,91,0.00,OVC,,0.00,WeatherDisplay:10.37,2013-01-05 13:09:00,
2013-01-05 08:14:00,30.9,28.6,30.21,SW,225,8.9,8.9,91,0.00,OVC,,0.00,WeatherDisplay:10.37,2013-01-05 13:14:00,
2013-01-05 08:19:00,30.9,28.6,30.21,WSW,248,5.4,5.8,91,0.00,OVC,,0.00,WeatherDisplay:10.37,2013-01-05 13:19:00,
2013-01-05 08:24:00,31.1,28.8,30.21,South,180,5.5,6.9,91,0.00,OVC,,0.00,WeatherDisplay:10.37,2013-01-05 13:24:00,
2013-01-05 08:29:00,31.3,29.0,30.22,WNW,292,5.7,8.1,91,0.00,OVC,,0.00,WeatherDisplay:10.37,2013-01-05 13:29:00,
2013-01-05 08:34:00,31.5,28.9,30.22,West,270,5.7,6.9,90,0.00,OVC,,0.00,WeatherDisplay:10.37,2013-01-05 13:34:00,
2013-01-05 08:39:00,31.6,29.0,30.22,West,270,8.2,9.2,90,0.00,OVC,,0.00,WeatherDisplay:10.37,2013-01-05 13:39:00,
2013-01-05 08:44:00,31.8,29.2,30.22,West,270,7.8,10.4,90,0.00,OVC,,0.00,WeatherDisplay:10.37,2013-01-05 13:44:00,
2013-01-05 08:49:00,31.8,29.2,30.22,SW,225,5.8,9.2,90,0.00,OVC,,0.00,WeatherDisplay:10.37,2013-01-05 13:49:00,
2013-01-05 08:54:00,32.0,29.1,30.23,West,270,4.2,5.8,89,0.00,OVC,,0.00,WeatherDisplay:10.37,2013-01-05 13:54:00,
2013-01-05 08:59:00,32.2,29.0,30.23,SW,225,8.3,9.4,88,0.00,OVC,,0.00,WeatherDisplay:10.37,2013-01-05 13:59:00,
2013-01-05 09:04:00,32.2,28.8,30.23,SSW,202,6.0,9.2,87,0.00,OVC,,0.00,WeatherDisplay:10.37,2013-01-05 14:04:00,
2013-01-05 09:09:00,32.2,28.8,30.23,SW,225,6.3,6.9,87,0.00,OVC,,0.00,WeatherDisplay:10.37,2013-01-05 14:09:00,
2013-01-05 09:14:00,32.4,28.7,30.23,West,270,5.0,8.1,86,0.00,BKN,,0.00,WeatherDisplay:10.37,2013-01-05 14:14:00,
2013-01-05 09:19:00,32.5,28.8,30.23,WSW,248,7.3,8.8,86,0.00,BKN,,0.00,WeatherDisplay:10.37,2013-01-05 14:19:00,
2013-01-05 09:24:00,32.5,28.8,30.23,WSW,248,6.1,6.3,86,0.00,BKN,,0.00,WeatherDisplay:10.37,2013-01-05 14:24:00,
2013-01-05 09:29:00,32.5,28.5,30.24,West,270,8.4,10.4,85,0.00,BKN,,0.00,WeatherDisplay:10.37,2013-01-05 14:29:00,
2013-01-05 09:34:00,32.9,28.9,30.24,SSW,202,5.7,5.8,85,0.00,BKN,,0.00,WeatherDisplay:10.37,2013-01-05 14:34:00,
2013-01-05 09:39:00,32.9,28.9,30.24,West,270,5.3,13.8,85,0.00,BKN,,0.00,WeatherDisplay:10.37,2013-01-05 14:39:00,
2013-01-05 09:44:00,32.9,28.9,30.24,West,270,5.7,6.8,85,0.00,BKN,,0.00,WeatherDisplay:10.37,2013-01-05 14:44:00,
2013-01-05 09:49:00,33.3,29.0,30.24,SW,225,5.8,6.3,84,0.00,BKN,,0.00,WeatherDisplay:10.37,2013-01-05 14:49:00,
2013-01-05 09:54:00,33.1,28.8,30.24,SW,225,8.7,9.2,84,0.00,BKN,,0.00,WeatherDisplay:10.37,2013-01-05 14:54:00,
2013-01-05 09:59:00,32.7,28.4,30.24,SW,225,5.5,8.1,84,0.00,BKN,,0.00,WeatherDisplay:10.37,2013-01-05 14:59:00,
2013-01-05 10:04:00,32.9,28.6,30.25,WNW,292,6.9,8.3,84,0.00,BKN,,0.00,WeatherDisplay:10.37,2013-01-05 15:04:00,
2013-01-05 10:09:00,32.7,28.4,30.25,SW,225,7.1,8.3,84,0.00,BKN,,0.00,WeatherDisplay:10.37,2013-01-05 15:09:00,
2013-01-05 10:14:00,32.4,28.4,30.25,WSW,248,7.1,9.2,85,0.00,BKN,,0.00,WeatherDisplay:10.37,2013-01-05 15:14:00,
2013-01-05 10:19:00,32.5,28.5,30.25,SW,225,5.5,6.3,85,0.00,BKN,,0.00,WeatherDisplay:10.37,2013-01-05 15:19:00,
2013-01-05 10:24:00,32.9,28.9,30.25,West,270,4.6,7.3,85,0.00,BKN,,0.00,WeatherDisplay:10.37,2013-01-05 15:24:00,
2013-01-05 10:29:00,32.7,28.7,30.25,SSW,202,8.6,11.5,85,0.00,BKN,,0.00,WeatherDisplay:10.37,2013-01-05 15:29:00,
2013-01-05 10:34:00,32.9,28.6,30.25,WSW,248,4.7,8.1,84,0.00,BKN,,0.00,WeatherDisplay:10.37,2013-01-05 15:34:00,
2013-01-05 10:39:00,33.1,28.8,30.25,WSW,248,4.9,5.8,84,0.00,BKN,,0.00,WeatherDisplay:10.37,2013-01-05 15:39:00,
2013-01-05 10:44:00,33.3,28.7,30.25,WSW,248,7.1,8.3,83,0.00,BKN,,0.00,WeatherDisplay:10.37,2013-01-05 15:44:00,
2013-01-05 10:49:00,33.8,28.9,30.25,West,270,5.8,5.8,82,0.00,BKN,,0.00,WeatherDisplay:10.37,2013-01-05 15:49:00,
2013-01-05 10:54:00,34.7,28.9,30.25,West,270,7.3,9.2,79,0.00,BKN,,0.00,WeatherDisplay:10.37,2013-01-05 15:54:00,
2013-01-05 10:59:00,34.0,28.2,30.25,West,270,4.2,5.8,79,0.00,BKN,,0.00,WeatherDisplay:10.37,2013-01-05 15:59:00,
2013-01-05 11:04:00,33.8,28.6,30.24,WSW,248,4.1,8.1,81,0.00,BKN,,0.00,WeatherDisplay:10.37,2013-01-05 16:04:00,
2013-01-05 11:09:00,33.6,28.4,30.24,SW,225,6.1,6.9,81,0.00,BKN,,0.00,WeatherDisplay:10.37,2013-01-05 16:09:00,
2013-01-05 11:14:00,34.2,28.7,30.24,West,270,5.2,5.8,80,0.00,BKN,,0.00,WeatherDisplay:10.37,2013-01-05 16:14:00,
2013-01-05 11:19:00,34.3,28.5,30.24,WSW,248,5.7,6.3,79,0.00,BKN,,0.00,WeatherDisplay:10.37,2013-01-05 16:19:00,
2013-01-05 11:24:00,34.3,28.5,30.24,WSW,248,6.3,6.3,79,0.00,BKN,,0.00,WeatherDisplay:10.37,2013-01-05 16:24:00,
2013-01-05 11:29:00,34.5,28.3,30.24,SW,225,4.2,4.6,78,0.00,BKN,,0.00,WeatherDisplay:10.37,2013-01-05 16:29:00,
2013-01-05 11:34:00,34.7,27.9,30.24,West,270,5.5,8.1,76,0.00,BKN,,0.00,WeatherDisplay:10.37,2013-01-05 16:34:00,
2013-01-05 11:39:00,34.5,27.7,30.23,SE,135,5.1,5.8,76,0.00,BKN,,0.00,WeatherDisplay:10.37,2013-01-05 16:39:00,
2013-01-05 11:44:00,34.3,27.8,30.23,West,270,7.5,8.3,77,0.00,BKN,,0.00,WeatherDisplay:10.37,2013-01-05 16:44:00,
2013-01-05 11:49:00,34.7,27.9,30.23,WSW,248,7.0,7.0,76,0.00,BKN,,0.00,WeatherDisplay:10.37,2013-01-05 16:49:00,
2013-01-05 11:54:00,34.7,28.2,30.22,SSW,202,5.0,5.8,77,0.00,BKN,,0.00,WeatherDisplay:10.37,2013-01-05 16:54:00,
2013-01-05 11:59:00,34.5,28.0,30.22,SSW,202,3.6,5.8,77,0.00,BKN,,0.00,WeatherDisplay:10.37,2013-01-05 16:59:00,
2013-01-05 12:04:00,34.7,27.9,30.22,West,270,6.3,10.4,76,0.00,BKN,,0.00,WeatherDisplay:10.37,2013-01-05 17:04:00,
2013-01-05 12:09:00,34.9,28.4,30.22,SW,225,5.4,7.3,77,0.00,BKN,,0.00,WeatherDisplay:10.37,2013-01-05 17:09:00,
2013-01-05 12:14:00,35.6,28.5,30.21,West,270,5.5,6.9,75,0.00,BKN,,0.00,WeatherDisplay:10.37,2013-01-05 17:14:00,
2013-01-05 12:19:00,35.1,28.6,30.21,West,270,5.1,6.9,77,0.00,BKN,,0.00,WeatherDisplay:10.37,2013-01-05 17:19:00,
2013-01-05 12:24:00,35.1,28.6,30.21,West,270,4.0,5.8,77,0.00,BKN,,0.00,WeatherDisplay:10.37,2013-01-05 17:24:00,
2013-01-05 12:29:00,34.9,28.7,30.20,SW,225,3.5,3.5,78,0.00,BKN,,0.00,WeatherDisplay:10.37,2013-01-05 17:29:00,
2013-01-05 12:34:00,34.7,28.9,30.20,SW,225,4.8,6.3,79,0.00,BKN,,0.00,WeatherDisplay:10.37,2013-01-05 17:34:00,
2013-01-05 12:39:00,34.2,29.0,30.20,WSW,248,4.6,6.3,81,0.00,BKN,,0.00,WeatherDisplay:10.37,2013-01-05 17:39:00,
2013-01-05 12:44:00,33.6,29.0,30.20,SW,225,8.1,9.4,83,0.00,BKN,,0.00,WeatherDisplay:10.37,2013-01-05 17:44:00,
2013-01-05 12:49:00,33.4,29.1,30.20,SW,225,6.6,9.2,84,0.00,BKN,,0.00,WeatherDisplay:10.37,2013-01-05 17:49:00,
2013-01-05 12:54:00,33.4,29.1,30.19,WNW,292,5.2,6.3,84,0.00,BKN,,0.00,WeatherDisplay:10.37,2013-01-05 17:54:00,
2013-01-05 12:59:00,33.4,29.1,30.19,WSW,248,4.6,7.8,84,0.00,BKN,,0.00,WeatherDisplay:10.37,2013-01-05 17:59:00,
2013-01-05 13:04:00,33.4,28.8,30.18,SSE,158,3.1,7.3,83,0.00,BKN,,0.00,WeatherDisplay:10.37,2013-01-05 18:04:00,
2013-01-05 13:09:00,33.4,28.8,30.18,SW,225,6.8,8.1,83,0.00,BKN,,0.00,WeatherDisplay:10.37,2013-01-05 18:09:00,
2013-01-05 13:14:00,33.3,28.7,30.18,WSW,248,5.2,5.8,83,0.00,BKN,,0.00,WeatherDisplay:10.37,2013-01-05 18:14:00,
2013-01-05 13:19:00,33.6,29.0,30.18,WSW,248,4.4,4.6,83,0.00,BKN,,0.00,WeatherDisplay:10.37,2013-01-05 18:19:00,
2013-01-05 13:24:00,33.8,29.2,30.18,West,270,5.4,6.3,83,0.00,BKN,,0.00,WeatherDisplay:10.37,2013-01-05 18:24:00,
2013-01-05 13:29:00,33.6,28.7,30.18,ESE,112,4.4,5.8,82,0.00,BKN,,0.00,WeatherDisplay:10.37,2013-01-05 18:29:00,
2013-01-05 13:34:00,33.6,28.7,30.18,West,270,5.0,6.9,82,0.00,BKN,,0.00,WeatherDisplay:10.37,2013-01-05 18:34:00,
2013-01-05 13:39:00,33.6,28.7,30.18,West,270,4.4,6.9,82,0.00,BKN,,0.00,WeatherDisplay:10.37,2013-01-05 18:39:00,
2013-01-05 13:44:00,33.6,28.7,30.18,West,270,3.4,4.7,82,0.00,BKN,,0.00,WeatherDisplay:10.37,2013-01-05 18:44:00,
2013-01-05 13:49:00,33.6,28.4,30.18,SSW,202,4.0,5.8,81,0.00,BKN,,0.00,WeatherDisplay:10.37,2013-01-05 18:49:00,
2013-01-05 13:54:00,33.6,28.4,30.18,West,270,4.1,4.7,81,0.00,BKN,,0.00,WeatherDisplay:10.37,2013-01-05 18:54:00,
2013-01-05 13:59:00,33.8,28.3,30.18,West,270,3.2,3.5,80,0.00,BKN,,0.00,WeatherDisplay:10.37,2013-01-05 18:59:00,
2013-01-05 14:04:00,34.0,28.5,30.18,SSW,202,2.8,5.8,80,0.00,BKN,,0.00,WeatherDisplay:10.37,2013-01-05 19:04:00,
2013-01-05 14:09:00,34.2,28.4,30.18,SW,225,3.5,5.8,79,0.00,BKN,,0.00,WeatherDisplay:10.37,2013-01-05 19:09:00,
2013-01-05 14:14:00,34.3,28.2,30.17,NW,315,4.3,4.6,78,0.00,BKN,,0.00,WeatherDisplay:10.37,2013-01-05 19:14:00,
2013-01-05 14:19:00,34.2,28.1,30.17,SSW,202,5.6,6.3,78,0.00,BKN,,0.00,WeatherDisplay:10.37,2013-01-05 19:19:00,
2013-01-05 14:24:00,34.3,28.2,30.17,SW,225,2.8,3.5,78,0.00,OVC,,0.00,WeatherDisplay:10.37,2013-01-05 19:24:00,
2013-01-05 14:29:00,34.3,28.2,30.17,SW,225,5.0,5.8,78,0.00,OVC,,0.00,WeatherDisplay:10.37,2013-01-05 19:29:00,
2013-01-05 14:34:00,34.2,28.1,30.17,SW,225,5.6,6.3,78,0.00,OVC,,0.00,WeatherDisplay:10.37,2013-01-05 19:34:00,
2013-01-05 14:39:00,34.0,27.9,30.18,WNW,292,3.9,4.6,78,0.00,OVC,,0.00,WeatherDisplay:10.37,2013-01-05 19:39:00,
2013-01-05 14:44:00,34.2,28.1,30.18,West,270,4.4,5.8,78,0.00,OVC,,0.00,WeatherDisplay:10.37,2013-01-05 19:44:00,
2013-01-05 14:49:00,34.2,28.1,30.18,WSW,248,3.5,4.6,78,0.00,OVC,,0.00,WeatherDisplay:10.37,2013-01-05 19:49:00,
2013-01-05 14:54:00,34.0,27.9,30.17,WSW,248,4.1,5.8,78,0.00,OVC,,0.00,WeatherDisplay:10.37,2013-01-05 19:54:00,
2013-01-05 14:59:00,34.0,27.9,30.17,West,270,3.3,3.5,78,0.00,OVC,,0.00,WeatherDisplay:10.37,2013-01-05 19:59:00,
2013-01-05 15:04:00,34.0,27.9,30.17,WSW,248,4.5,5.8,78,0.00,OVC,,0.00,WeatherDisplay:10.37,2013-01-05 20:04:00,
2013-01-05 15:09:00,34.0,27.9,30.17,WSW,248,3.7,4.6,78,0.00,OVC,,0.00,WeatherDisplay:10.37,2013-01-05 20:09:00,
2013-01-05 15:14:00,34.0,27.9,30.17,WSW,248,3.6,3.7,78,0.00,OVC,,0.00,WeatherDisplay:10.37,2013-01-05 20:14:00,
2013-01-05 15:19:00,34.0,27.9,30.17,WSW,248,2.8,3.5,78,0.00,OVC,,0.00,WeatherDisplay:10.37,2013-01-05 20:19:00,
2013-01-05 15:24:00,34.0,27.9,30.17,West,270,3.5,4.2,78,0.00,OVC,,0.00,WeatherDisplay:10.37,2013-01-05 20:24:00,
2013-01-05 15:29:00,34.0,27.9,30.17,West,270,2.9,4.6,78,0.00,OVC,,0.00,WeatherDisplay:10.37,2013-01-05 20:29:00,
2013-01-05 15:34:00,34.2,28.1,30.17,West,270,2.7,2.7,78,0.00,OVC,,0.00,WeatherDisplay:10.37,2013-01-05 20:34:00,
2013-01-05 15:39:00,34.0,27.5,30.17,West,270,4.0,4.6,77,0.00,OVC,,0.00,WeatherDisplay:10.37,2013-01-05 20:39:00,
2013-01-05 15:44:00,34.0,27.5,30.17,SSW,202,4.4,5.8,77,0.00,OVC,,0.00,WeatherDisplay:10.37,2013-01-05 20:44:00,
2013-01-05 15:49:00,34.0,27.2,30.17,WNW,292,3.9,4.6,76,0.00,OVC,,0.00,WeatherDisplay:10.37,2013-01-05 20:49:00,
2013-01-05 15:54:00,33.6,27.2,30.16,WSW,248,3.6,5.3,77,0.00,OVC,,0.00,WeatherDisplay:10.37,2013-01-05 20:54:00,
2013-01-05 15:59:00,33.4,27.3,30.16,WSW,248,3.2,4.6,78,0.00,OVC,,0.00,WeatherDisplay:10.37,2013-01-05 20:59:00,
2013-01-05 16:04:00,33.3,27.2,30.15,SSW,202,4.4,5.8,78,0.00,OVC,,0.00,WeatherDisplay:10.37,2013-01-05 21:04:00,
2013-01-05 16:09:00,33.1,26.7,30.15,NNW,338,2.7,5.8,77,0.00,OVC,,0.00,WeatherDisplay:10.37,2013-01-05 21:09:00,
2013-01-05 16:14:00,33.1,26.7,30.15,West,270,4.7,5.8,77,0.00,OVC,,0.00,WeatherDisplay:10.37,2013-01-05 21:14:00,
2013-01-05 16:19:00,33.1,26.4,30.15,West,270,2.5,5.8,76,0.00,OVC,,0.00,WeatherDisplay:10.37,2013-01-05 21:19:00,
2013-01-05 16:24:00,32.9,26.2,30.15,SW,225,2.0,5.8,76,0.00,OVC,,0.00,WeatherDisplay:10.37,2013-01-05 21:24:00,
2013-01-05 16:29:00,32.7,26.3,30.15,West,270,1.2,2.3,77,0.00,OVC,,0.00,WeatherDisplay:10.37,2013-01-05 21:29:00,
2013-01-05 16:34:00,32.7,26.3,30.15,NNW,338,2.2,2.3,77,0.00,OVC,,0.00,WeatherDisplay:10.37,2013-01-05 21:34:00,
2013-01-05 16:39:00,32.7,26.0,30.13,NW,315,3.7,4.6,76,0.00,OVC,,0.00,WeatherDisplay:10.37,2013-01-05 21:39:00,
2013-01-05 16:44:00,32.5,25.8,30.13,SE,135,5.3,5.8,76,0.00,OVC,,0.00,WeatherDisplay:10.37,2013-01-05 21:44:00,
2013-01-05 16:49:00,32.5,25.8,30.13,South,180,3.5,4.6,76,0.00,OVC,,0.00,WeatherDisplay:10.37,2013-01-05 21:49:00,
2013-01-05 16:54:00,32.4,25.7,30.14,WSW,248,2.4,4.6,76,0.00,OVC,,0.00,WeatherDisplay:10.37,2013-01-05 21:54:00,
2013-01-05 16:59:00,32.4,25.7,30.14,WSW,248,3.8,5.8,76,0.00,OVC,,0.00,WeatherDisplay:10.37,2013-01-05 21:59:00,
2013-01-05 17:04:00,32.2,25.5,30.15,West,270,3.3,3.7,76,0.00,OVC,,0.00,WeatherDisplay:10.37,2013-01-05 22:04:00,
2013-01-05 17:09:00,32.2,25.5,30.15,NW,315,3.3,4.6,76,0.00,OVC,,0.00,WeatherDisplay:10.37,2013-01-05 22:09:00,
2013-01-05 17:14:00,32.0,25.3,30.14,SSE,158,3.6,4.6,76,0.00,OVC,,0.00,WeatherDisplay:10.37,2013-01-05 22:14:00,
2013-01-05 17:19:00,31.8,24.8,30.14,West,270,2.7,5.8,75,0.00,OVC,,0.00,WeatherDisplay:10.37,2013-01-05 22:19:00,
2013-01-05 17:24:00,31.5,24.5,30.14,WSW,248,2.0,3.5,75,0.00,OVC,,0.00,WeatherDisplay:10.37,2013-01-05 22:24:00,
2013-01-05 17:29:00,31.1,24.1,30.13,South,180,2.9,3.5,75,0.00,OVC,,0.00,WeatherDisplay:10.37,2013-01-05 22:29:00,
2013-01-05 17:34:00,30.7,23.7,30.13,ESE,112,2.8,5.8,75,0.00,OVC,,0.00,WeatherDisplay:10.37,2013-01-05 22:34:00,
2013-01-05 17:39:00,30.4,23.4,30.14,West,270,2.7,3.5,75,0.00,OVC,,0.00,WeatherDisplay:10.37,2013-01-05 22:39:00,
2013-01-05 17:44:00,29.8,23.2,30.14,West,270,3.2,3.5,76,0.00,OVC,,0.00,WeatherDisplay:10.37,2013-01-05 22:44:00,
2013-01-05 17:49:00,29.5,23.2,30.14,West,270,0.6,2.2,77,0.00,OVC,,0.00,WeatherDisplay:10.37,2013-01-05 22:49:00,
2013-01-05 17:54:00,29.1,23.1,30.14,West,270,3.2,3.7,78,0.00,OVC,,0.00,WeatherDisplay:10.37,2013-01-05 22:54:00,
2013-01-05 17:59:00,28.9,23.2,30.14,West,270,2.6,2.6,79,0.00,OVC,,0.00,WeatherDisplay:10.37,2013-01-05 22:59:00,
2013-01-05 18:04:00,28.9,23.2,30.14,NNW,338,1.9,2.3,79,0.00,BKN,,0.00,WeatherDisplay:10.37,2013-01-05 23:04:00,
2013-01-05 18:09:00,28.8,23.1,30.14,West,270,0.1,2.3,79,0.00,BKN,,0.00,WeatherDisplay:10.37,2013-01-05 23:09:00,
2013-01-05 18:14:00,28.6,23.2,30.14,WSW,248,0.0,0.0,80,0.00,SCT,,0.00,WeatherDisplay:10.37,2013-01-05 23:14:00,
2013-01-05 18:19:00,28.6,23.2,30.12,SW,225,1.7,2.3,80,0.00,SCT,,0.00,WeatherDisplay:10.37,2013-01-05 23:19:00,
2013-01-05 18:24:00,28.4,23.3,30.12,SSE,158,0.0,0.0,81,0.00,SCT,,0.00,WeatherDisplay:10.37,2013-01-05 23:24:00,
2013-01-05 18:29:00,28.2,23.1,30.13,SSE,158,2.2,2.7,81,0.00,SCT,,0.00,WeatherDisplay:10.37,2013-01-05 23:29:00,
2013-01-05 18:34:00,28.2,23.1,30.13,SSE,158,1.6,2.3,81,0.00,SCT,,0.00,WeatherDisplay:10.37,2013-01-05 23:34:00,
2013-01-05 18:39:00,28.0,22.9,30.12,SSE,158,1.9,2.3,81,0.00,SCT,,0.00,WeatherDisplay:10.37,2013-01-05 23:39:00,
2013-01-05 18:44:00,27.9,23.1,30.12,SSE,158,0.0,0.0,82,0.00,SCT,,0.00,WeatherDisplay:10.37,2013-01-05 23:44:00,
2013-01-05 18:49:00,27.5,22.7,30.12,SSE,158,0.0,0.0,82,0.00,SCT,,0.00,WeatherDisplay:10.37,2013-01-05 23:49:00,
2013-01-05 18:54:00,27.1,22.6,30.12,South,180,0.3,1.1,83,0.00,SCT,,0.00,WeatherDisplay:10.37,2013-01-05 23:54:00,
2013-01-05 18:59:00,27.0,22.8,30.12,South,180,1.7,1.7,84,0.00,SCT,,0.00,WeatherDisplay:10.37,2013-01-05 23:59:00,
2013-01-05 19:04:00,27.0,22.8,30.11,SSE,158,1.7,1.7,84,0.00,SCT,,0.00,WeatherDisplay:10.37,2013-01-06 00:04:00,
2013-01-05 19:09:00,26.8,22.6,30.11,SSE,158,1.5,1.7,84,0.00,SCT,,0.00,WeatherDisplay:10.37,2013-01-06 00:09:00,
2013-01-05 19:14:00,26.4,22.5,30.11,SE,135,0.0,1.7,85,0.00,BKN,,0.00,WeatherDisplay:10.37,2013-01-06 00:14:00,
2013-01-05 19:19:00,26.6,22.7,30.11,SSE,158,1.6,2.3,85,0.00,BKN,,0.00,WeatherDisplay:10.37,2013-01-06 00:19:00,
2013-01-05 19:24:00,27.1,22.6,30.11,SSE,158,2.2,3.5,83,0.00,BKN,,0.00,WeatherDisplay:10.37,2013-01-06 00:24:00,
2013-01-05 19:29:00,27.1,22.6,30.10,SSW,202,1.6,2.2,83,0.00,BKN,,0.00,WeatherDisplay:10.37,2013-01-06 00:29:00,
2013-01-05 19:34:00,27.9,23.1,30.10,SSE,158,1.7,1.7,82,0.00,BKN,,0.00,WeatherDisplay:10.37,2013-01-06 00:34:00,
2013-01-05 19:39:00,27.7,22.9,30.12,WSW,248,2.0,3.2,82,0.00,BKN,,0.00,WeatherDisplay:10.37,2013-01-06 00:39:00,
2013-01-05 19:44:00,27.7,22.9,30.12,SE,135,2.0,2.7,82,0.00,BKN,,0.00,WeatherDisplay:10.37,2013-01-06 00:44:00,
2013-01-05 19:49:00,27.9,23.1,30.12,West,270,2.5,3.5,82,0.00,BKN,,0.00,WeatherDisplay:10.37,2013-01-06 00:49:00,
2013-01-05 19:54:00,28.2,23.1,30.10,West,270,2.7,2.7,81,0.00,BKN,,0.00,WeatherDisplay:10.37,2013-01-06 00:54:00,
2013-01-05 19:59:00,28.4,23.3,30.10,West,270,2.5,3.5,81,0.00,BKN,,0.00,WeatherDisplay:10.37,2013-01-06 00:59:00,
2013-01-05 20:04:00,28.6,23.2,30.10,SW,225,3.1,3.5,80,0.00,BKN,,0.00,WeatherDisplay:10.37,2013-01-06 01:04:00,
2013-01-05 20:09:00,29.1,23.4,30.10,South,180,3.7,6.9,79,0.00,BKN,,0.00,WeatherDisplay:10.37,2013-01-06 01:09:00,
2013-01-05 20:14:00,29.3,23.3,30.10,West,270,5.3,6.9,78,0.00,BKN,,0.00,WeatherDisplay:10.37,2013-01-06 01:14:00,
2013-01-05 20:19:00,29.3,23.3,30.10,West,270,3.5,4.6,78,0.00,BKN,,0.00,WeatherDisplay:10.37,2013-01-06 01:19:00,
2013-01-05 20:24:00,29.5,23.5,30.10,West,270,4.6,5.8,78,0.00,BKN,,0.00,WeatherDisplay:10.37,2013-01-06 01:24:00,
2013-01-05 20:29:00,29.7,23.7,30.10,SSE,158,4.0,5.8,78,0.00,BKN,,0.00,WeatherDisplay:10.37,2013-01-06 01:29:00,
2013-01-05 20:34:00,29.8,23.5,30.10,SW,225,4.3,6.9,77,0.00,BKN,,0.00,WeatherDisplay:10.37,2013-01-06 01:34:00,
2013-01-05 20:39:00,30.0,23.7,30.09,West,270,4.3,5.8,77,0.00,BKN,,0.00,WeatherDisplay:10.37,2013-01-06 01:39:00,
2013-01-05 20:44:00,30.0,23.7,30.09,South,180,4.6,5.8,77,0.00,BKN,,0.00,WeatherDisplay:10.37,2013-01-06 01:44:00,
2013-01-05 20:49:00,30.2,23.9,30.09,East,90,6.9,10.4,77,0.00,BKN,,0.00,WeatherDisplay:10.37,2013-01-06 01:49:00,
2013-01-05 20:54:00,30.2,23.9,30.09,South,180,4.2,5.8,77,0.00,BKN,,0.00,WeatherDisplay:10.37,2013-01-06 01:54:00,
2013-01-05 20:59:00,30.4,24.1,30.09,WSW,248,5.4,6.9,77,0.00,BKN,,0.00,WeatherDisplay:10.37,2013-01-06 01:59:00,
2013-01-05 21:04:00,30.4,24.1,30.07,ESE,112,2.5,3.5,77,0.00,BKN,,0.00,WeatherDisplay:10.37,2013-01-06 02:04:00,
2013-01-05 21:09:00,30.4,24.1,30.07,NNW,338,4.0,5.3,77,0.00,BKN,,0.00,WeatherDisplay:10.37,2013-01-06 02:09:00,
2013-01-05 21:14:00,30.4,24.1,30.06,ESE,112,3.8,4.6,77,0.00,BKN,,0.00,WeatherDisplay:10.37,2013-01-06 02:14:00,
2013-01-05 21:19:00,30.6,24.2,30.06,WSW,248,5.2,5.8,77,0.00,BKN,,0.00,WeatherDisplay:10.37,2013-01-06 02:19:00,
2013-01-05 21:24:00,30.7,24.3,30.06,South,180,3.7,5.8,77,0.00,OVC,,0.00,WeatherDisplay:10.37,2013-01-06 02:24:00,
2013-01-05 21:29:00,30.9,24.2,30.05,East,90,4.3,5.8,76,0.00,OVC,,0.00,WeatherDisplay:10.37,2013-01-06 02:29:00,
2013-01-05 21:34:00,31.1,24.4,30.05,SW,225,6.5,8.1,76,0.00,OVC,,0.00,WeatherDisplay:10.37,2013-01-06 02:34:00,
2013-01-05 21:39:00,31.1,24.4,30.04,SSW,202,5.1,6.9,76,0.00,OVC,,0.00,WeatherDisplay:10.37,2013-01-06 02:39:00,
2013-01-05 21:44:00,31.1,24.4,30.04,West,270,3.2,6.8,76,0.00,OVC,,0.00,WeatherDisplay:10.37,2013-01-06 02:44:00,
2013-01-05 21:49:00,31.1,24.4,30.04,SSW,202,4.4,5.8,76,0.00,OVC,,0.00,WeatherDisplay:10.37,2013-01-06 02:49:00,
2013-01-05 21:54:00,31.3,24.6,30.04,SW,225,7.1,8.1,76,0.00,OVC,,0.00,WeatherDisplay:10.37,2013-01-06 02:54:00,
2013-01-05 21:59:00,31.3,24.3,30.04,WSW,248,5.9,6.9,75,0.00,OVC,,0.00,WeatherDisplay:10.37,2013-01-06 02:59:00,
2013-01-05 22:04:00,31.5,24.5,30.04,East,90,5.0,5.8,75,0.00,OVC,,0.00,WeatherDisplay:10.37,2013-01-06 03:04:00,
2013-01-05 22:09:00,31.6,24.6,30.04,West,270,7.1,8.1,75,0.00,OVC,,0.00,WeatherDisplay:10.37,2013-01-06 03:09:00,
2013-01-05 22:14:00,31.8,24.5,30.05,SW,225,7.6,11.5,74,0.00,OVC,,0.00,WeatherDisplay:10.37,2013-01-06 03:14:00,
2013-01-05 22:19:00,31.8,24.5,30.05,WSW,248,7.5,8.1,74,0.00,OVC,,0.00,WeatherDisplay:10.37,2013-01-06 03:19:00,
2013-01-05 22:24:00,31.8,24.8,30.05,WSW,248,5.1,5.8,75,0.00,OVC,,0.00,WeatherDisplay:10.37,2013-01-06 03:24:00,
2013-01-05 22:29:00,31.8,24.8,30.04,NNW,338,7.6,9.2,75,0.00,OVC,,0.00,WeatherDisplay:10.37,2013-01-06 03:29:00,
2013-01-05 22:34:00,32.0,25.0,30.04,WNW,292,7.4,8.1,75,0.00,OVC,,0.00,WeatherDisplay:10.37,2013-01-06 03:34:00,
2013-01-05 22:39:00,32.2,24.8,30.03,WNW,292,6.4,8.8,74,0.00,OVC,,0.00,WeatherDisplay:10.37,2013-01-06 03:39:00,
2013-01-05 22:44:00,32.2,24.8,30.03,South,180,6.1,9.2,74,0.00,OVC,,0.00,WeatherDisplay:10.37,2013-01-06 03:44:00,
2013-01-05 22:49:00,32.4,25.0,30.03,West,270,6.1,6.9,74,0.00,OVC,,0.00,WeatherDisplay:10.37,2013-01-06 03:49:00,
2013-01-05 22:54:00,32.4,25.0,30.02,West,270,6.3,6.9,74,0.00,OVC,,0.00,WeatherDisplay:10.37,2013-01-06 03:54:00,
2013-01-05 22:59:00,32.5,25.1,30.02,WSW,248,5.0,6.3,74,0.00,OVC,,0.00,WeatherDisplay:10.37,2013-01-06 03:59:00,
2013-01-05 23:04:00,32.5,24.8,30.01,West,270,4.2,5.8,73,0.00,OVC,,0.00,WeatherDisplay:10.37,2013-01-06 04:04:00,
2013-01-05 23:09:00,32.5,24.8,30.01,SW,225,5.2,6.3,73,0.00,OVC,,0.00,WeatherDisplay:10.37,2013-01-06 04:09:00,
2013-01-05 23:14:00,32.7,25.0,30.01,West,270,6.0,9.2,73,0.00,OVC,,0.00,WeatherDisplay:10.37,2013-01-06 04:14:00,
2013-01-05 23:19:00,32.9,25.2,30.02,SSW,202,3.8,5.8,73,0.00,OVC,,0.00,WeatherDisplay:10.37,2013-01-06 04:19:00,
2013-01-05 23:24:00,32.9,25.2,30.02,SSE,158,6.4,9.2,73,0.00,OVC,,0.00,WeatherDisplay:10.37,2013-01-06 04:24:00,
2013-01-05 23:29:00,32.9,25.2,30.01,WSW,248,5.8,5.8,73,0.00,OVC,,0.00,WeatherDisplay:10.37,2013-01-06 04:29:00,
2013-01-05 23:34:00,33.1,25.4,30.01,SE,135,4.7,5.8,73,0.00,OVC,,0.00,WeatherDisplay:10.37,2013-01-06 04:34:00,
2013-01-05 23:39:00,33.1,25.4,30.01,SW,225,7.6,9.2,73,0.00,OVC,,0.00,WeatherDisplay:10.37,2013-01-06 04:39:00,
2013-01-05 23:44:00,33.1,25.4,30.01,North,360,6.8,8.1,73,0.00,OVC,,0.00,WeatherDisplay:10.37,2013-01-06 04:44:00,
2013-01-05 23:49:00,33.1,25.4,30.01,SW,225,4.9,6.9,73,0.00,OVC,,0.00,WeatherDisplay:10.37,2013-01-06 04:49:00,
2013-01-05 23:54:00,33.3,25.6,30.00,WSW,248,7.3,8.1,73,0.00,OVC,,0.00,WeatherDisplay:10.37,2013-01-06 04:54:00,
2013-01-05 23:59:00,33.3,25.6,30.00,NW,315,6.3,8.1,73,0.00,OVC,,0.00,WeatherDisplay:10.37,2013-01-06 04:59:00,